Weather History for KJAN - March, 2012

Change the Weather History Date:

Monday, March 19, 2012

  Actual Average Record
Temperature  
Mean Temperature 72 °F 58 °F  
Max Temperature 78 °F 69 °F 88 °F (1982)
Min Temperature 65 °F 46 °F 25 °F (1923)
Degree Days  
Heating Degree Days 0 8  
Month to date heating degree days 66 194  
Since 1 July heating degree days 1635 2186  
Cooling Degree Days 7 1  
Month to date cooling degree days 75 16  
Year to date cooling degree days 99 26  
Growing Degree Days 21 (Base 50)    
Moisture  
Dew Point 61 °F    
Average Humidity 70    
Maximum Humidity 93    
Minimum Humidity 47    
Precipitation  
Precipitation 0.00 in 0.16 in 5.00 in (1906)
Month to date precipitation 3.01 3.05  
Year to date precipitation 15.31 12.78  
Sea Level Pressure  
Sea Level Pressure 30.04 in    
Wind  
Wind Speed 13 mph (SSE)    
Max Wind Speed 25 mph    
Max Gust Speed 33 mph    
Visibility 9 miles    
Events      
T = Trace of Precipitation, MM = Missing Value Source: NWS Daily Summary

Daily Weather History Graph

Daily Weather History Graph

Search for Another Location

Airport or City:

Trip Planner

Search our weather history database for the weather conditions in past years. The results will help you decide how hot, cold, wet, or windy it might be!

Date:

Astronomy

Mar. 19, 2012 Rise Set
Actual Time 7:04 AM CDT 7:11 PM CDT
Civil Twilight 6:40 AM CDT 7:36 PM CDT
Nautical Twilight 6:11 AM CDT 8:04 PM CDT
Astronomical Twilight 5:42 AM CDT 8:33 PM CDT
Moon 5:08 AM CDT (3/19) 4:46 PM CDT (3/19)
Length of Visible Light 12h 55m
Length of Day
12h 06m
Waning Crescent, 8% of the Moon is Illuminated
Mar 19
Waning Crescent
Mar 22
New
Mar 30
First Quarter
Apr 6
Full
Apr 13
Last Quarter

Hourly Weather History & Observations

Time (CDT) Temp. Dew Point Humidity Pressure Visibility Wind Dir Wind Speed Gust Speed Precip Events Conditions
12:54 AM 66.2 °F 60.8 °F 83% 30.11 in 10.0 mi South 6.9 mph - N/A   Clear
1:54 AM 64.9 °F 61.0 °F 87% 30.09 in 10.0 mi SSE 9.2 mph - N/A   Clear
2:54 AM 64.9 °F 62.1 °F 90% 30.08 in 10.0 mi SSE 6.9 mph - N/A   Partly Cloudy
3:33 AM 64.4 °F 62.6 °F 94% 30.08 in 9.0 mi SSE 8.1 mph - N/A   Mostly Cloudy
3:54 AM 64.9 °F 63.0 °F 93% 30.06 in 9.0 mi SSE 9.2 mph - N/A   Overcast
4:54 AM 64.9 °F 63.0 °F 93% 30.06 in 8.0 mi SE 8.1 mph - N/A   Overcast
5:54 AM 64.9 °F 63.0 °F 93% 30.07 in 8.0 mi SSE 5.8 mph - N/A   Mostly Cloudy
6:54 AM 64.4 °F 62.6 °F 94% 30.08 in 7.0 mi SSE 8.1 mph - N/A   Mostly Cloudy
7:08 AM 64.4 °F 62.6 °F 94% 30.08 in 6.0 mi SSE 8.1 mph - N/A   Scattered Clouds
7:54 AM 64.9 °F 63.0 °F 93% 30.08 in 7.0 mi SSE 9.2 mph - N/A   Partly Cloudy
8:17 AM 66.2 °F 64.4 °F 94% 30.09 in 7.0 mi SSE 9.2 mph - N/A   Partly Cloudy
8:54 AM 66.9 °F 64.0 °F 90% 30.08 in 7.0 mi SE 12.7 mph - N/A   Scattered Clouds
9:54 AM 68.0 °F 62.1 °F 81% 30.08 in 10.0 mi SSE 15.0 mph - N/A   Clear
10:54 AM 72.0 °F 62.1 °F 71% 30.09 in 9.0 mi SSE 12.7 mph - N/A   Clear
11:54 AM 75.9 °F 61.0 °F 60% 30.07 in 8.0 mi SSE 16.1 mph 21.9 mph N/A   Clear
12:54 PM 75.9 °F 59.0 °F 56% 30.05 in 9.0 mi SSE 16.1 mph 24.2 mph N/A   Clear
1:54 PM 77.0 °F 59.0 °F 54% 30.03 in 10.0 mi SSE 17.3 mph 28.8 mph N/A   Clear
2:54 PM 77.0 °F 59.0 °F 54% 30.00 in 10.0 mi SSE 18.4 mph - N/A   Partly Cloudy
3:54 PM 78.1 °F 57.9 °F 50% 29.99 in 10.0 mi SSE 16.1 mph 23.0 mph N/A   Partly Cloudy
4:54 PM 78.1 °F 57.0 °F 48% 29.98 in 10.0 mi South 15.0 mph - N/A   Partly Cloudy
5:54 PM 77.0 °F 55.9 °F 48% 29.98 in 10.0 mi SSE 20.7 mph 32.2 mph N/A   Partly Cloudy
6:54 PM 75.0 °F 59.0 °F 57% 29.96 in 10.0 mi SE 15.0 mph 25.3 mph N/A   Partly Cloudy
7:54 PM 73.0 °F 59.0 °F 61% 29.97 in 10.0 mi SE 15.0 mph - N/A   Partly Cloudy
8:54 PM 71.1 °F 59.0 °F 66% 29.96 in 10.0 mi SE 15.0 mph - N/A   Clear
9:54 PM 70.0 °F 60.1 °F 71% 29.96 in 10.0 mi SE 13.8 mph 24.2 mph N/A   Clear
10:54 PM 69.1 °F 60.1 °F 73% 29.95 in 10.0 mi SSE 15.0 mph - N/A   Clear
11:54 PM 68.0 °F 60.1 °F 76% 29.94 in 10.0 mi SSE 15.0 mph 24.2 mph N/A   Clear